Погода в Жуковке

Погода в Жуковке : погода сейчас, прогноз погоды и архив. Всё, что Вы хотите узнать о погоде в Жуковке!

Хотите узнать прогноз погоды в Жуковке? Тогда Вам сюда: Погода в Жуковке

Поиск расширенной информации на нашем сайте:

Другие новости

Новости СМИ2

Главная страница сайта

Новости сайта

03.07.2017

Напоминаем, что на нашем специализированном сайте Метеоцентр.Азия вы можете получить высокодетализированные автоматические прогнозы погоды по пунктам России, СНГ и мира в авиационном формате (включающие направление и скорость ветра, видимость, явления погоды, количество и форму облачности, нижнюю и верхнюю границу облачности).


Погода в Жуковке - сегодня

Время (UTC), дата Ветер
(°,м/с) 
Видим.   Явления Облачность Т
(°С)
Тd
(°С)
f(%) Тe
(°С)
Pmin
(гПа)
dP
(гПа)
Po
(мм)
O2
(г/м3)
Тmin Tmax R s Состояние
почвы
09 16.04.18 150 (ЮВ) 20000 м    4/0 верхняя 
[Ci fib]
+17.9 +4.2 40 +18  1020.3  -0.5  750  283           
12 16.04.18 190 (Ю) 20000 м    8/0 верхняя 
[Ci fib]
+20.9 +3 31 +21  1018.9  -1.1  749  280           
15 16.04.18 220 (ЮЗ) 20000 м    9/0 средняя, верхняя 
[Ac trans|Ci fib]
+19.4 +3 34 +20  1017.6  -1.4  748  281           
00 17.04.18 130 (ЮВ) 11000 м    8/0 верхняя 
[Ci fib]
+7.5 +5 84 +8  1016.8  -0.4  746  292           
09 17.04.18 200 (Ю) 15000 м    10/0 средняя 
[Ac und]
+17.3 +6.9 50 +18  1016.8  0.4  747  282           
12 17.04.18 180 (Ю) 20000 м    10/0 средняя 
[Ac und]
+18.1 +4.5 41 +18  1017  0.2  747  282           
15 17.04.18 200 (Ю) 20000 м    10/3 600 м кучево-дожд., средняя 
[Cb cap|Ac und]
+16.5 +3.3 41 +17  1015.3  -1.8  746  283           
18 17.04.18 190 (Ю) 12000 м  {ливн. осадки}  10/10 540 м кучево-дожд. 
[Cb cap]
+14 +5.3 56 +15  1015.4  -0.1  746  285    +18.1  0.0     
21 17.04.18 180 (Ю) 13000 м    10/6 600 м кучево-дожд., средняя 
[Cb cap|Ac und]
+12.7 +5.2 60 +13  1014.2  -1.2  745  286           
00 18.04.18 160 (Ю) н/о    н/о 
+9.9 +7.2 83 +11               
03 18.04.18 300 (СЗ) 6-10{10}  6000 м  дымка{ливн. осадки}  10/10 480 м кучево-дожд. 
[Cb cap]
+10.9 +9.7 92 +10  1012.7  -0.5  744  286  +9.8       
18 19.04.18 340 (С) 6-12{12}  13000 м  {дождь}  4/0 средняя, верхняя 
[Ac trans|Ci fib]
+8.9 +4.4 73 +7  1011.5  2.5  743  289    +10.1     
21 19.04.18 340 (С) 5{12}  12000 м    ясно 
+7.8 +3.6 75 +6  1012.8  1.3  744  291           
00 20.04.18 350 (С) 13000 м    ясно 
+6.9 +2 71 +6  1013.7  0.8  744  292           
21 20.04.18 260 (З) 13000 м    ясно 
+8.9 -0.2 53 +9  1015  -0.8  745  291           
00 21.04.18 250 (З) 12000 м    ясно 
+7.6 +1.2 64 +8  1013.2  -1.9  744  291           
18 21.04.18 300 (СЗ) 8-15{18}  14000 м  {гроза, ливн. осадки}  3/0 средняя 
[Ac trans]
+15.4 -2 30 +14  996.7  0.7  732  279    +21.5     
21 21.04.18 320 (СЗ) 6-12{19}  14000 м    ясно 
+9.7 -2.4 43 +8  1002.1  4.9  736  287           
21 22.04.18 010 (С) 12000 м    3/0 средняя 
[Ac trans]
+2.9 -0.1 81 +2  1010.3  2.1  741  296           
00 23.04.18 340 (С) 12000 м    ясно 
+1.4 -2.4 76 +2  1012.5  1.9  743  298           
09 23.04.18 360 (С) 20000 м    3/3 1000 м 
[Cu hum]
+6.1 -7.8 36 +5  1016.2  0.4  746  295           
12 23.04.18 340 (С) 20000 м    8/0 средняя, верхняя 
[Ac trans|Ci fib]
+8.5 -8.6 29 +8  1015.5  -0.5  746  292           
15 23.04.18 360 (С) 20000 м    6/0 верхняя 
[Ci fib]
+9.8 -9.5 25 +9  1014.4  -1  745  291           
21 23.04.18 тихо ()   11000 м    ясно 
-1.9 -4.3 84 -2  1015.5  -0.3  745  303           
00 24.04.18 150 (ЮВ) 9000 м  дымка  ясно 
-3.5 -4.9 90 -3  1015.6  745  305           
Время (UTC), дата Ветер
(°,м/с) 
Видим.   Явления Облачность Т
(°С)
Тd
(°С)
f(%) Тe
(°С)
Pmin
(гПа)
dP
(гПа)
Po
(мм)
O2
(г/м3)
Тmin Tmax R s Состояние
почвы

Для получения пояснительной информации подведите курсор к названию столбца.

ПОГОДА в Жуковке - архив

Всё, что Вы хотите узнать о погоде в Жуковке - удобно и подробно!

Выберите нужную дату (начиная с 1 января 2015* года) и нажмите кнопку "Найти".
Будут отображены архивные сводки погоды по пункту Жуковка, начиная с указанной даты.


Отображать данные в формате CSV (для использования в таблицах Excel)


Внимание! Наш архив погоды предназначен исключительно для личного некоммерческого использования в познавательных целях. Если Вам необходимы официальные справки о состоянии погоды (для производственных, юридических, коммерческих и т.п. целей), обращайтесь в органы Росгидромета.

*Примечание: данная дата относится к архиву по метеостанциям СССР (Россия, СНГ, Балтия).
Архив по метеостанциям Зарубежной Европы и Азии (кроме Китая) хранится 10 дней, по другим регионам земного шара (Китай, Африка, Америка, Австралия, Океания) - 1 день.

Жуковка - район местоположения метеостанции


Название, широта, долгота, высота метеостанции:
Жуковка 53.5°ш. 33.8°д. 177 м над ур. моря [Российская Федерация]

Дополнительная информация

В oтличие oт бoльшинства пoгoдных сайтoв мы публикуем пoдрoбную метеoинфoрмацию в детальнoм прoфессиoнальнoм фoрмате.

Характеристики температуры и влажнoсти вoздуха измеряются на высoте 2 м в тени вдали oт зданий и деревьев.
Скoрoсть ветра измеряется на высoте 10 м (на урoвне рoста челoвека скoрoсть ветра ниже в 1.5-2 раза). Если метеoстанция нахoдится в гoрoде или в лесу, тo скoрoсть ветра занижена на 2-4 м/с пo сравнению с oткрытым местoм. Скoрoсть ветра над акватoриями крупных рек и oзёр, а также на вершинах хoлмoв на 2-5 м/с выше, чем в oбычных услoвиях.
Атмoсфернoе давление в разных тoчках местнoсти мoжет значительнo oтличаться oт давления на метеoстанции, в зависимoсти oт услoвий рельефа (при пoдъёме на 10 м давление пoнижается примернo на 1 мм рт.ст.).